Location: Vigo di Fassa
(46.4167°N, 11.6667°E)
Time: 14:51:41
(UTC+00:00)

Meteor 2-20 Rocket - Pass Details

Date: 03 March 2021
Orbit: 941 x 958 km, 82.5° (Epoch: 20 April)

Event Time Altitude Azimuth Distance (km) Brightness Sun altitude
Rises 19:40:58 0° 351° (N) 3,622 7.9 -27.7°
Reaches altitude 10° 19:43:28 10° 353° (N) 2,675 7.1 -28.1°
Enters shadow 19:49:07 73° 33° (NNE) 990 4.4 -29.0°
